Hourly Data Report for October 19, 2014

All times are specified in Local Standard Time (LST). Add 1 hour to adjust for Daylight Saving Time where and when it is observed.

BAKER LAKE A
NUNAVUT

64°17'56.000" N
96°04'40.000" W
18.60 m
2300503
71926
YBK

Download Data

Hourly Data (October 2014)
Hourly Data Report for October 19, 2014
Temp Definition
°C
Dew Point Temp Definition
°C
Rel Hum Definition
%
Wind Dir Definition
10's deg

Wind Spd Definition
km/h
Visibility Definition
km
Stn Press Definition
kPa
Hmdx Definition


Wind Chill Definition


Weather Definition


TIME
00:00 Legend Double Dagger -1.6 -2.6 93 16 24 16.1 100.11   -8 Snow,Blowing Snow
01:00 Legend Double Dagger -1.7 -2.7 93 17 15 24.1 100.09   -7 Snow,Blowing Snow
02:00 Legend Double Dagger -1.6 -2.7 92 18 10 24.1 100.09   -5 LegendNANA
03:00 Legend Double Dagger -1.9 -2.7 94 19 5 24.1 100.10   -4 Cloudy
04:00 Legend Double Dagger -2.3 -3.0 95 32 3 24.1 100.12   -3 LegendNANA
05:00 Legend Double Dagger -2.3 -3.0 95 34 5 24.1 100.17   -4 LegendNANA
06:00 Legend Double Dagger -2.3 -3.1 94 32 5 24.1 100.21   -4 Cloudy
07:00 Legend Double Dagger -2.2 -3.2 93 31 14 32.2 100.26   -7 LegendNANA
08:00 Legend Double Dagger -2.8 -3.8 93 31 16 32.2 100.29   -8 LegendNANA
09:00 Legend Double Dagger -2.3 -3.3 93 30 12 32.2 100.33   -7 Mostly Cloudy
10:00 Legend Double Dagger -1.8 -3.1 91 30 11 32.2 100.40   -6 LegendNANA
11:00 Legend Double Dagger -1.6 -2.7 92 30 9 32.2 100.51   -5 LegendNANA
12:00 Legend Double Dagger -1.1 -1.7 96 30 18 32.2 100.52   -6 Cloudy
13:00 Legend Double Dagger -0.6 -2.0 90 32 21 32.2 100.57   -6 LegendNANA
14:00 Legend Double Dagger -1.9 -3.5 89 33 21 32.2 100.62   -8 LegendNANA
15:00 Legend Double Dagger -2.2 -3.9 88 32 26 32.2 100.68   -9 Cloudy
16:00 Legend Double Dagger -2.8 -4.5 88 31 26 32.2 100.77   -10 LegendNANA
17:00 Legend Double Dagger -3.9 -5.8 87 31 19 32.2 100.89   -10 LegendNANA
18:00 Legend Double Dagger -6.2 -7.9 88 30 19 24.1 100.97   -13 Mainly Clear
19:00 Legend Double Dagger -7.9 -9.4 89 31 11 24.1 101.05   -13 LegendNANA
20:00 Legend Double Dagger -8.9 -10.5 88 31 22 24.1 101.07   -17 LegendNANA
21:00 Legend Double Dagger -9.3 -11.1 87 31 28 24.1 101.11   -18 Mainly Clear
22:00 Legend Double Dagger -9.4 -11.0 88 30 18 24.1 101.15   -17 LegendNANA
23:00 Legend Double Dagger -7.8 -9.8 86 30 20 24.1 101.18   -15 LegendNANA

Notes on Data Quality.

Legend

  • E = Estimated
  • M = Missing
  • NA = Not Available
  • ‡ = Partner data that is not subject to review by the National Climate Archives
Date modified: